Flag for United Kingdom Weather past 2 weeks in Market Harborough, England, United Kingdom

Now
53 °F

Cool.


Feels Like: 49 °F
Forecast: 40 / 58 °F
Wind: 12 mph from Northwest

Location: Church Lawford

Current Time: May 29, 2015 at 8:19:48 PM

Latest Report: May 29, 2015 at 7:00 PM


Visibility: 28 mi

Pressure: 29.75 "Hg

Humidity: 55%

Dew point: 37 °F

Location of Market HarboroughLocation

Historic Weather in Market Harborough — Graph

°F

Market Harborough temperature yesterday

Maximum temperature yesterday: 59 °F (at 5:00 PM)
Minimum temperature yesterday: 44 °F (at 11:00 PM)
Average temperature yesterday: 53 °F

Past Weeks' High & Low Weather Summary

 TemperatureHumidityPressure
High67 °F (May 22, 4:00 PM)96% (May 18, 9:00 AM)30.35 "Hg (May 18, 9:00 AM)
Low38 °F (May 20, 5:00 AM)41% (May 21, 6:00 PM)29.54 "Hg (May 19, 5:00 AM)
Average51 °F75%30.08 "Hg
* Reported May 14 7:00 PM — May 29 7:00 PM, Market Harborough, Weather by CustomWeather, © 2015

Note: Actual official high and low records may vary slightly from our data, if they occured in-between our weather recording intervals... More about our weather records

Advertising

Market Harborough weather history for previous 24 hours

 ConditionsComfort  
Time TempWeatherWind HumidityBarometerVisibility
7:00 PM
Fri, May 29
53 °FCool.12 mph55%29.75 "Hg28 mi
6:00 PM54 °FCool.14 mph57%29.73 "Hg31 mi
5:00 PM53 °FCool.15 mph57%29.71 "Hg28 mi
4:00 PM55 °FCool.13 mph68%29.69 "Hg17 mi
3:00 PM52 °FCool.12 mph80%29.68 "Hg25 mi
2:00 PM51 °FCool.12 mph82%29.67 "Hg31 mi
1:00 PM53 °FCool.13 mph79%29.65 "Hg28 mi
12:00 PM49 °FCool.10 mph90%29.64 "Hg25 mi
11:00 AM48 °FRain. Cloudy.12 mph90%29.64 "Hg11 mi
10:00 AM49 °FRain showers. Cloudy.9 mph91%29.63 "Hg7 mi
9:00 AM48 °FRain. Cloudy.7 mph89%29.68 "Hg7 mi
8:00 AM48 °FRain showers. Cloudy.8 mph88%29.72 "Hg9 mi
7:00 AM48 °FCool.7 mph86%29.75 "Hg11 mi
6:00 AM47 °FCool.5 mph87%29.77 "Hg14 mi
5:00 AM48 °FCool.7 mph80%29.79 "Hg19 mi
4:00 AM47 °FCool.6 mph80%29.82 "Hg16 mi
3:00 AM48 °FCool.5 mph80%29.84 "Hg22 mi
2:00 AM48 °FCool.5 mph80%29.86 "Hg19 mi
1:00 AM49 °FCool.3 mph78%29.89 "Hg16 mi
12:00 AM48 °FCool.5 mph69%29.91 "Hg28 mi
11:00 PM
Thu, May 28
44 °FQuite cool.3 mph79%29.92 "Hg19 mi
9:00 PM52 °FCool.7 mph53%29.92 "Hg28 mi
8:00 PM54 °FCool.9 mph50%29.92 "Hg25 mi
Weather by CustomWeather, © 2015

See weather overviewHow to use our weather pages